Regional Weather Roundup
Issued by NWS Sioux Falls, SD

Home | Current Version | Previous Version | Text Only | Print | Product List | Glossary On
Versions: 1 2 3 4 5 6 7 8 9 10 11 12 13 14 15 16 17 18 19 20 21 22 23 24 25 26 27 28 29 30 31 32 33 34 35 36 37 38 39 40 41 42 43 44 45 46 47 48 49 50
000
ASUS43 KFSD 040410
RWRFSD

WEATHER ROUNDUP FOR SE SOUTH DAKOTA/SW MINNESOTA/NW IOWA
NATIONAL WEATHER SERVICE SIOUX FALLS SD
1000 PM CST SAT DEC 03 2016

NOTE: "FAIR" INDICATES FEW OR NO CLOUDS BELOW 12,000 FEET WITH NO
SIGNIFICANT WEATHER AND OR OBSTRUCTIONS TO VISIBILITY.


SDZ038>040-050-052>070-040500-
SOUTHEAST SOUTH DAKOTA

CITY           SKY/WX    TMP DP  RH WIND       PRES   REMARKS
BROOKINGS      CLOUDY    33  31  92 S18       29.98S WCI  22
CHAMBERLAIN    CLEAR     29  26  87 CALM      29.92S
HURON          CLOUDY    34  32  92 S13       29.92F WCI  25
MADISON        CLOUDY    32  32 100 S17G25    29.99S FOG     WCI  21
MITCHELL       MOCLDY    36  33  89 S15G22    29.95F
SIOUX FALLS    CLOUDY    34  33  96 S16       30.02F FOG     WCI  24
WINNER         FAIR      30  22  72 SW8       29.92F WCI  22
YANKTON        CLOUDY    36  30  80 S12       30.02F
$$

MNZ071-072-080-081-089-090-097-098-040500-
SOUTHWEST MINNESOTA

CITY           SKY/WX    TMP DP  RH WIND       PRES   REMARKS
FAIRMONT       CLOUDY    33  32  96 S10       30.10F WCI  25
JACKSON        LGT SNOW  32  32 100 S13       30.08F WCI  22
LUVERNE        CLOUDY    32  32 100 S14       30.04F WCI  22
MARSHALL       CLOUDY    35  31  85 S15       30.03F WCI  25
MONTEVIDEO     CLOUDY    34  34 100 S12       30.04F FOG     WCI  25
PIPESTONE      CLOUDY    34  32  93 S17       30.00F FOG     WCI  23
REDWOOD FALLS  LGT SNOW  34  31  88 S12       30.06F FOG     WCI  25
TRACY          CLOUDY    35  32  91 S12G20    30.04S WCI  26
WINDOM         FLURRIES  34  34 100 CALM      30.06F
WORTHINGTON    MIX PCPN  32  31  96 S16G23    30.05F WCI  21
$$

IAZ001>003-012>014-020>022-031-032-NEZ013-014-SDZ071-040500-
NORTHWEST IOWA

CITY           SKY/WX    TMP DP  RH WIND       PRES   REMARKS
CHEROKEE       FLURRIES  33  33 100 S8        30.09S WCI  25
DENISON        LGT SNOW  32  32 100 SE6       30.07F WCI  26
ESTHERVILLE    LGT SNOW  32  32 100 S15       30.09F FOG     WCI  22
LE MARS        CLOUDY    34  32  93 S10       30.07F WCI  26
ORANGE CITY    CLOUDY    34  34 100 S13       30.06F WCI  25
SHELDON        CLOUDY    34  34 100 S15       30.05F WCI  24
SIOUX CITY     CLOUDY    35  33  92 S10       30.07F WCI  27
SPENCER        CLOUDY    33  33 100 S17       30.09F WCI  22
STORM LAKE     LGT SNOW  32  32 100 S13       30.08S WCI  22
$$

ABBREVIATIONS USED IN REMARKS
   TC - TEMPERATURE IN CELSIUS
  WCI - WIND CHILL INDEX
   HX - HEAT INDEX
  VSB - VISIBILITY




USA.gov is the U.S. government's official web portal to all federal, state and local government web resources and services.